#timestamp,LO_Frequency,Hit,StdDev 
1509573615.8,286047000.8,N
1509573635.7,286047000.1,N
1509573655.5,286047002.8,N
1509573675.3,286047002.8,N
1509573695.2,286046998.4,N
1509573715.0,286046999.9,N
1509573715.9,286046999.9,N
1509573735.7,286047000.1,N
1509573755.6,286046999.9,N
1509573775.4,286047000.9,N
1509573795.3,286047000.5,N
1509573815.1,286047000.1,N
1509573816.0,286047000.1,N
1509573835.8,286047000.5,N
1509573855.7,286047000.8,N
1509573875.5,286047000.5,N
1509573895.3,286046998.4,N
1509573915.2,286046998.2,N
1509573935.0,286047000.6,N
1509573935.9,286047000.6,N
1509573955.8,286047001.0,N
1509573975.6,286046998.5,N
1509573995.4,286046998.6,N
1509574015.3,286047000.0,N
1509574035.1,286047000.3,N
1509574055.8,286046999.8,N
1509574075.7,286046999.8,N
1509574095.5,286047001.1,N
1509574115.4,286046999.7,N
1509574135.2,286047000.6,N
1509574155.0,286047001.9,N
1509574155.9,286047001.9,N
1509574175.8,286047001.3,N
1509574195.6,286047002.1,N
1509574215.4,286046999.8,N
1509574235.3,286047002.7,N
1509574255.1,286047000.2,N
1509574275.9,286047002.3,N
1509574295.7,286046999.8,N
1509574315.5,286047000.7,N
1509574335.4,286046999.0,N
1509574355.2,286046998.2,N
1509574375.0,286046998.2,N
1509574375.9,286046998.2,N
1509574395.8,286047000.5,N
1509574415.6,286047000.9,N
1509574435.5,286047002.5,N
1509574455.3,286047002.1,N
1509574475.1,286047002.1,N
1509574495.9,286047002.5,N
1509574515.7,286047001.9,N
1509574535.5,286047004.3,Y
1509574555.4,286047001.7,P
1509574575.2,286047002.4,P
1509574595.1,286047001.3,N
1509574596.0,286047001.3,N
1509574615.8,286046999.8,N
1509574635.6,286047000.0,N
1509574655.5,286046999.7,N
1509574675.3,286046999.8,N
1509574695.2,286047002.2,N
1509574715.9,286047000.5,N
1509574735.7,286047002.4,N
1509574755.6,286047000.1,N
1509574775.4,286047002.2,N
1509574795.3,286047000.5,N
1509574815.1,286047002.3,N
1509574816.0,286047002.3,N
1509574835.8,286047002.4,N
1509574855.7,286047002.1,N
1509574875.5,286047001.6,N
1509574895.3,286046999.9,N
1509574915.2,286047000.5,N
1509574935.0,286047000.6,N
1509574935.9,286047000.6,N
1509574955.8,286047002.7,N
1509574975.6,286047004.2,Y
1509574995.4,286046999.7,P
1509575015.3,286047002.4,P
1509575035.1,286047000.3,N
1509575055.8,286047002.6,N
1509575075.7,286047000.0,N
1509575095.5,286047002.3,N
1509575115.4,286047002.1,N
1509575135.2,286047002.3,N
1509575155.0,286047000.5,N
1509575155.9,286047000.5,N
1509575175.8,286047000.5,N
1509575195.6,286047000.2,N
1509575215.4,286047000.6,N
1509575235.3,286047000.8,N
1509575255.1,286046998.7,N
1509575275.9,286046999.4,N
1509575295.7,286046998.2,N
1509575315.5,286046998.3,N
1509575335.4,286047000.8,N
1509575355.2,286047000.3,N
1509575375.0,286047000.9,N
1509575375.9,286047000.9,N
1509575395.8,286047001.0,N
1509575415.6,286046999.8,N
1509575435.5,286047000.3,N
1509575455.3,286047002.6,N
1509575475.1,286047000.8,N
1509575495.9,286047000.7,N
1509575515.7,286047000.2,N
1509575535.5,286047002.8,N
1509575555.4,286047000.6,N
1509575575.2,286046996.5,N
1509575595.1,286046998.4,N
1509575596.0,286046998.4,N
1509575615.8,286046998.5,N
1509575635.6,286046999.3,N
1509575655.5,286047000.7,N
1509575675.3,286047000.8,N
1509575695.1,286046998.9,N
1509575715.9,286046999.0,N
1509575735.7,286046998.4,N
1509575755.6,286046999.5,N
1509575775.4,286046999.1,N
1509575795.2,286046999.5,N
1509575815.1,286046998.3,N
1509575816.0,286046998.3,N
1509575835.8,286046998.5,N
1509575855.7,286046999.5,N
1509575875.5,286046999.2,N
1509575895.3,286046998.4,N
1509575915.2,286046998.1,N
1509575935.0,286047000.5,N
1509575935.9,286047000.5,N
1509575955.8,286047000.0,N
1509575975.6,286047002.8,N
1509575995.4,286047001.8,N
1509576015.3,286047000.2,N
1509576035.1,286047000.9,N
1509576055.8,286047001.0,N
1509576075.7,286047000.4,N
1509576095.5,286046998.6,N
1509576115.4,286046998.3,N
1509576135.2,286046998.6,N
1509576155.0,286046998.6,N
1509576155.9,286046998.6,N
1509576175.8,286046999.9,N
1509576195.6,286047002.7,N
1509576215.4,286046999.9,N
1509576235.3,286047002.8,N
1509576255.1,286047002.3,N
1509576275.9,286047002.2,N
1509576295.7,286047002.1,N
1509576315.5,286046999.8,N
1509576335.4,286047002.7,N
1509576355.2,286047002.7,N
1509576375.0,286047002.1,N
1509576375.9,286047002.1,N
1509576395.8,286047002.8,N
1509576415.6,286047004.1,N
1509576435.4,286047001.4,N
1509576455.3,286047001.4,N
1509576475.1,286047001.3,N
1509576495.9,286047001.7,N
1509576515.7,286047003.6,N
1509576535.5,286047001.6,N
1509576555.4,286047004.4,N
1509576575.2,286047003.9,N
1509576595.0,286047002.3,N
1509576595.9,286047002.3,N
1509576615.8,286047006.0,Y
1509576635.6,286047002.0,P
1509576655.5,286047002.7,P
1509576675.3,286046999.9,N
1509576695.1,286047002.4,N
1509576715.9,286047002.5,N
1509576735.7,286047002.8,N
1509576755.6,286047002.8,N
1509576775.4,286047002.8,Y
1509576795.2,286047000.2,P
1509576815.1,286046998.6,N
1509576816.0,286046998.6,N
1509576835.8,286046998.6,N
1509576855.6,286046999.2,N
1509576875.5,286047003.5,N
1509576895.3,286047011.3,Y
1509576915.2,286047009.5,P
1509576935.9,286047008.3,N
1509576955.7,286047007.0,N
1509576975.6,286047002.9,N
1509576995.4,286047002.9,N
1509577015.2,286047003.2,N
1509577035.1,286047005.3,N
1509577036.0,286047005.3,N
1509577055.8,286047003.6,N
1509577075.7,286047004.1,N
1509577095.5,286047003.6,N
1509577115.3,286047003.8,N
1509577135.2,286047001.8,N
1509577155.0,286047001.9,N
1509577155.9,286047001.9,N
1509577175.8,286047002.7,N
1509577195.6,286047000.6,N
